sat.trackr.live / text

‹ back to catalog

STARLINK-34099

NORAD 63959 · 2025-099H

PAYLOAD ACTIVE UNKNOWN

§ Identity

Operator
Country
US
Launch date
2025-05-13
Launch site
AFETR
Launch vehicle
Mass (kg)
RCS (m²)

Purposes: comms

External: N2YO · Heavens-Above · Gunter

§ Orbital elements

Epoch: 2026-05-25T04:44:26.002752Z

Period
94.27 min
Inclination
43.0044°
Eccentricity
0.0001745
Mean motion
15.27601818 rev/d
Perigee alt
481.8 km
Apogee alt
484.2 km
Semi-major
6,861.1 km
B*
8.0252e-4
RAAN
104.4558°
Arg perigee
272.0998°
Mean anomaly
87.9653°
Rev number
5,903

§ Raw data

STARLINK-340991 63959U 25099H   26145.19752318  .00021902  00000+0  80252-3 0  99942 63959  43.0044 104.4558 0001745 272.0998  87.9653 15.27601818 59034

JSON: /api/v1/satellites/63959 · /tle

For live sub-satellite position, see the globe view (requires WebGL).

§ Visibility from observer

Set your observer location to see the next 7 days of passes ≥ 10°. The values pass through the URL so the page stays shareable.

No JS? Fill the form by hand. The geolocation button needs JavaScript.